,,PA_Meas_PMT16A,,PR_Meas_QMR101_102,,RH_Meas_QMH101,,SR_Meas_QMS101,,TA_Meas_QMH101,,GenWind,,GenWind,
time,status,PA,status,PR,status,RH,status,SR,status,TA,status,DirAvg,status,SpdAvg,
2015-02-13, 07:34:04,VALID,917.752,VALID,0,VALID,98.3421,VALID,71.6632,VALID,18.6499,VALID,134,VALID,1.00352,
2015-02-13, 07:35:04,VALID,917.767,VALID,0,VALID,98.3649,VALID,73.4897,VALID,18.6499,VALID,144,VALID,1.32852,
2015-02-13, 07:36:04,VALID,917.757,VALID,0,VALID,98.3573,VALID,75.3162,VALID,18.6903,VALID,141,VALID,0.769141,
2015-02-13, 07:37:04,VALID,917.772,VALID,0,VALID,98.3421,VALID,76.8204,VALID,18.7293,VALID,137,VALID,0.750391,
2015-02-13, 07:38:04,VALID,917.781,VALID,0,VALID,98.3649,VALID,78.0023,VALID,18.7084,VALID,139,VALID,0.953516,
2015-02-13, 07:39:04,VALID,917.823,VALID,0,VALID,98.3573,VALID,78.5395,VALID,18.7084,VALID,133,VALID,1.10078,
2015-02-13, 07:40:04,VALID,917.781,VALID,0,VALID,98.3421,VALID,79.1841,VALID,18.7474,VALID,135,VALID,1.35781,
2015-02-13, 07:41:04,VALID,917.806,VALID,0,VALID,98.3726,VALID,80.0437,VALID,18.7474,VALID,138,VALID,1.61133,
2015-02-13, 07:42:04,VALID,917.822,VALID,0,VALID,98.3649,VALID,81.7627,VALID,18.7864,VALID,136,VALID,0.845703,
2015-02-13, 07:43:04,VALID,917.838,VALID,0,VALID,98.3649,VALID,84.1264,VALID,18.8254,VALID,126,VALID,1.03867,
2015-02-13, 07:44:04,VALID,917.85,VALID,0,VALID,98.3344,VALID,87.1348,VALID,18.8254,VALID,139,VALID,1.33242,
2015-02-13, 07:45:04,VALID,917.844,VALID,0,VALID,98.3497,VALID,91.325,VALID,18.8434,VALID,126,VALID,0.892187,
2015-02-13, 07:46:04,VALID,917.859,VALID,0,VALID,98.3573,VALID,96.8045,VALID,18.9034,VALID,127,VALID,0.550781,
2015-02-13, 07:47:04,VALID,917.844,VALID,0,VALID,98.3497,VALID,103.466,VALID,18.9229,VALID,131,VALID,1.02305,
2015-02-13, 07:48:04,VALID,917.837,VALID,0,VALID,98.3573,VALID,115.822,VALID,18.9828,VALID,122,VALID,1.15547,
2015-02-13, 07:49:04,VALID,917.88,VALID,0,VALID,98.3268,VALID,136.128,VALID,19.0023,VALID,120,VALID,0.598828,
2015-02-13, 07:50:04,VALID,917.887,VALID,0,VALID,98.3268,VALID,157.938,VALID,19.0803,VALID,117,VALID,1.22227,
2015-02-13, 07:51:04,VALID,917.907,VALID,0,VALID,98.3421,VALID,174.592,VALID,19.0998,VALID,132,VALID,1.00703,
2015-02-13, 07:52:04,VALID,917.884,VALID,0,VALID,98.3116,VALID,164.063,VALID,19.2348,VALID,116,VALID,0.0933594,
2015-02-13, 07:53:04,VALID,917.924,VALID,0,VALID,98.2963,VALID,119.797,VALID,19.2753,VALID,131,VALID,0.800781,
2015-02-13, 07:54:04,VALID,917.918,VALID,0,VALID,98.2887,VALID,118.83,VALID,19.3338,VALID,97,VALID,0.566406,
2015-02-13, 07:55:04,VALID,917.941,VALID,0,VALID,98.2735,VALID,119.904,VALID,19.3728,VALID,89,VALID,0,
2015-02-13, 07:56:04,VALID,917.958,VALID,0,VALID,98.2582,VALID,123.557,VALID,19.4118,VALID,112,VALID,0,
2015-02-13, 07:57:04,VALID,917.961,VALID,0,VALID,98.2811,VALID,126.566,VALID,19.4703,VALID,113,VALID,0,
2015-02-13, 07:58:04,VALID,917.956,VALID,0,VALID,98.2582,VALID,130.219,VALID,19.5288,VALID,113,VALID,0,
2015-02-13, 07:59:04,VALID,917.992,VALID,0,VALID,98.2811,VALID,133.334,VALID,19.5288,VALID,113,VALID,0,
2015-02-13, 08:00:04,VALID,918.015,VALID,0,VALID,98.2735,VALID,135.913,VALID,19.5288,VALID,111,VALID,0,
2015-02-13, 08:01:04,VALID,917.998,VALID,0,VALID,98.3039,VALID,137.417,VALID,19.5093,VALID,127,VALID,0,
2015-02-13, 08:02:04,VALID,918.005,VALID,0,VALID,98.3344,VALID,137.632,VALID,19.5093,VALID,114,VALID,0,
2015-02-13, 08:03:04,VALID,918.042,VALID,0,VALID,98.2658,VALID,136.665,VALID,19.6068,VALID,83,VALID,0,
2015-02-13, 08:04:04,VALID,918.033,VALID,0,VALID,98.2582,VALID,135.376,VALID,19.7043,VALID,83,VALID,0,
2015-02-13, 08:05:04,VALID,918.059,VALID,0,VALID,98.2811,VALID,134.301,VALID,19.6653,VALID,129,VALID,0,
2015-02-13, 08:06:04,VALID,918.057,VALID,0,VALID,98.2811,VALID,130.648,VALID,19.7028,VALID,129,VALID,0,
2015-02-13, 08:07:04,VALID,918.056,VALID,0,VALID,98.2811,VALID,125.169,VALID,19.6638,VALID,129,VALID,0,
2015-02-13, 08:08:04,VALID,918.059,VALID,0,VALID,98.3344,VALID,118.185,VALID,19.6248,VALID,83,VALID,0,
2015-02-13, 08:09:04,VALID,918.071,VALID,0,VALID,98.3344,VALID,111.416,VALID,19.6263,VALID,84,VALID,0,
2015-02-13, 08:10:04,VALID,918.081,VALID,0,VALID,98.3116,VALID,104.863,VALID,19.6248,VALID,66,VALID,0,
2015-02-13, 08:11:04,VALID,918.085,VALID,0,VALID,98.2582,VALID,99.2756,VALID,19.7028,VALID,74,VALID,0,
2015-02-13, 08:12:04,VALID,918.094,VALID,0,VALID,98.2811,VALID,95.1929,VALID,19.6263,VALID,139,VALID,0,
2015-02-13, 08:13:04,VALID,918.111,VALID,0,VALID,98.2811,VALID,93.4738,VALID,19.6053,VALID,120,VALID,0,
2015-02-13, 08:14:04,VALID,918.121,VALID,0,VALID,98.2353,VALID,93.7961,VALID,19.5468,VALID,118,VALID,0,
2015-02-13, 08:15:04,VALID,918.131,VALID,0,VALID,98.243,VALID,93.6887,VALID,19.5078,VALID,117,VALID,0,
2015-02-13, 08:16:04,VALID,918.126,VALID,0,VALID,98.182,VALID,93.5812,VALID,19.5078,VALID,110,VALID,0,
2015-02-13, 08:17:04,VALID,918.155,VALID,0,VALID,98.1286,VALID,93.044,VALID,19.5468,VALID,110,VALID,0.946875,
2015-02-13, 08:18:04,VALID,918.161,VALID,0,VALID,98.0905,VALID,92.5068,VALID,19.5663,VALID,122,VALID,0.814062,
2015-02-13, 08:19:04,VALID,918.134,VALID,0,VALID,98.0524,VALID,92.9366,VALID,19.5273,VALID,110,VALID,1.48281,
2015-02-13, 08:20:04,VALID,918.163,VALID,0,VALID,97.999,VALID,94.3333,VALID,19.5678,VALID,139,VALID,0.732422,
2015-02-13, 08:21:04,VALID,918.134,VALID,0,VALID,97.9685,VALID,96.4822,VALID,19.5663,VALID,150,VALID,0.0398437,
2015-02-13, 08:22:04,VALID,918.181,VALID,0,VALID,97.9075,VALID,97.7714,VALID,19.5468,VALID,143,VALID,0.472656,
2015-02-13, 08:23:04,VALID,918.158,VALID,0,VALID,97.877,VALID,98.9533,VALID,19.5273,VALID,153,VALID,1.08945,
2015-02-13, 08:24:04,VALID,918.149,VALID,0,VALID,97.7856,VALID,99.8128,VALID,19.5078,VALID,147,VALID,1.12773,
2015-02-13, 08:25:04,VALID,918.133,VALID,0,VALID,97.7093,VALID,99.8128,VALID,19.5078,VALID,142,VALID,1.08398,
2015-02-13, 08:26:04,VALID,918.137,VALID,0,VALID,97.6636,VALID,101.317,VALID,19.5468,VALID,131,VALID,1.18984,
2015-02-13, 08:27:04,VALID,918.119,VALID,0,VALID,97.6026,VALID,102.284,VALID,19.5273,VALID,144,VALID,1.33398,
2015-02-13, 08:28:04,VALID,918.138,VALID,0,VALID,97.534,VALID,105.077,VALID,19.5663,VALID,144,VALID,0.690625,
2015-02-13, 08:29:04,VALID,918.15,VALID,0,VALID,97.4806,VALID,108.408,VALID,19.5663,VALID,140,VALID,1.72461,
2015-02-13, 08:30:04,VALID,918.137,VALID,0,VALID,97.3281,VALID,112.813,VALID,19.5468,VALID,134,VALID,1.58398,
2015-02-13, 08:31:04,VALID,918.151,VALID,0,VALID,97.1681,VALID,117.97,VALID,19.5663,VALID,129,VALID,1.82266,
2015-02-13, 08:32:04,VALID,918.181,VALID,0,VALID,97.0613,VALID,123.128,VALID,19.6443,VALID,125,VALID,0.957812,
2015-02-13, 08:33:04,VALID,918.189,VALID,0,VALID,96.9241,VALID,127.21,VALID,19.6833,VALID,130,VALID,1.69453,
2015-02-13, 08:34:04,VALID,918.191,VALID,0,VALID,96.7411,VALID,130.219,VALID,19.7013,VALID,135,VALID,1.12812,
2015-02-13, 08:35:04,VALID,918.194,VALID,0,VALID,96.6573,VALID,131.723,VALID,19.7808,VALID,133,VALID,1.23711,
2015-02-13, 08:36:04,VALID,918.201,VALID,0,VALID,96.5506,VALID,133.657,VALID,19.8003,VALID,135,VALID,1.52734,
2015-02-13, 08:37:04,VALID,918.212,VALID,0,VALID,96.4438,VALID,136.88,VALID,19.8588,VALID,143,VALID,0.953906,
2015-02-13, 08:38:04,VALID,918.182,VALID,0,VALID,96.3371,VALID,139.996,VALID,19.8963,VALID,138,VALID,1.49531,
2015-02-13, 08:39:04,VALID,918.197,VALID,0,VALID,96.1236,VALID,144.831,VALID,19.9368,VALID,130,VALID,1.11602,
2015-02-13, 08:40:04,VALID,918.188,VALID,0,VALID,96.1389,VALID,149.343,VALID,19.9758,VALID,138,VALID,0.859375,
2015-02-13, 08:41:04,VALID,918.19,VALID,0,VALID,96.0474,VALID,151.922,VALID,19.9953,VALID,150,VALID,0.882031,
2015-02-13, 08:42:04,VALID,918.191,VALID,0,VALID,95.9407,VALID,156.112,VALID,20.0343,VALID,138,VALID,0.860937,
2015-02-13, 08:43:04,VALID,918.184,VALID,0,VALID,95.7806,VALID,169.864,VALID,20.0523,VALID,121,VALID,0.992578,
2015-02-13, 08:44:04,VALID,918.167,VALID,0,VALID,95.5976,VALID,193.931,VALID,20.1108,VALID,124,VALID,1.36094,
2015-02-13, 08:45:04,VALID,918.204,VALID,0,VALID,95.0945,VALID,338.01,VALID,20.1708,VALID,146,VALID,1.52617,
2015-02-13, 08:46:04,VALID,918.173,VALID,0,VALID,94.538,VALID,450.608,VALID,20.3074,VALID,129,VALID,1.42266,
2015-02-13, 08:47:04,VALID,918.185,VALID,0,VALID,92.007,VALID,441.153,VALID,20.4829,VALID,153,VALID,1.01211,
2015-02-13, 08:48:04,VALID,918.188,VALID,0,VALID,91.2142,VALID,441.153,VALID,20.7365,VALID,159,VALID,0.762891,
2015-02-13, 08:49:04,VALID,918.212,VALID,0,VALID,90.2765,VALID,428.905,VALID,21.0291,VALID,132,VALID,1.15625,
2015-02-13, 08:50:04,VALID,918.206,VALID,0,VALID,87.6464,VALID,420.632,VALID,21.1836,VALID,167,VALID,1.3875,
2015-02-13, 08:51:04,VALID,918.233,VALID,0,VALID,86.6554,VALID,413.863,VALID,21.4372,VALID,148,VALID,1.55938,
2015-02-13, 08:52:04,VALID,918.242,VALID,0,VALID,86.0226,VALID,407.739,VALID,21.5542,VALID,152,VALID,0.971484,
2015-02-13, 08:53:04,VALID,918.266,VALID,0,VALID,85.7939,VALID,409.458,VALID,21.7493,VALID,136,VALID,1.78164,
2015-02-13, 08:54:04,VALID,918.251,VALID,0,VALID,85.7634,VALID,411.929,VALID,21.8859,VALID,173,VALID,0.835938,
2015-02-13, 08:55:04,VALID,918.262,VALID,0,VALID,86.2818,VALID,411.177,VALID,22.081,VALID,103,VALID,1.43086,
2015-02-13, 08:56:04,VALID,918.289,VALID,0,VALID,86.3809,VALID,414.723,VALID,22.1005,VALID,137,VALID,0.257813,
2015-02-13, 08:57:04,VALID,918.251,VALID,0,VALID,84.8791,VALID,418.806,VALID,22.1591,VALID,112,VALID,1.24375,
2015-02-13, 08:58:04,VALID,918.29,VALID,0,VALID,86.4648,VALID,421.169,VALID,22.2371,VALID,65,VALID,0,
2015-02-13, 08:59:04,VALID,918.27,VALID,0,VALID,85.3899,VALID,425.897,VALID,22.3135,VALID,100,VALID,0.416406,
2015-02-13, 09:00:04,VALID,918.286,VALID,0,VALID,83.4535,VALID,428.153,VALID,22.3542,VALID,138,VALID,1.39453,
2015-02-13, 09:01:04,VALID,918.26,VALID,0,VALID,80.9531,VALID,433.955,VALID,22.3737,VALID,111,VALID,1.68047,
2015-02-13, 09:02:04,VALID,918.269,VALID,0,VALID,80.7015,VALID,435.996,VALID,22.2567,VALID,114,VALID,1.56562,
2015-02-13, 09:03:04,VALID,918.244,VALID,0,VALID,81.8907,VALID,438.575,VALID,22.2371,VALID,90,VALID,0.715234,
2015-02-13, 09:04:04,VALID,918.269,VALID,0,VALID,82.5006,VALID,442.55,VALID,22.2762,VALID,89,VALID,0.0375,
2015-02-13, 09:05:04,VALID,918.27,VALID,0,VALID,81.1589,VALID,444.591,VALID,22.3347,VALID,138,VALID,0.550391,
2015-02-13, 09:06:04,VALID,918.292,VALID,0,VALID,80.7625,VALID,446.633,VALID,22.3347,VALID,107,VALID,1.32656,
2015-02-13, 09:07:04,VALID,918.305,VALID,0,VALID,80.4652,VALID,449.211,VALID,22.3542,VALID,95,VALID,1.95547,
2015-02-13, 09:08:04,VALID,918.304,VALID,0,VALID,80.4804,VALID,453.187,VALID,22.3542,VALID,120,VALID,1.68633,
2015-02-13, 09:09:04,VALID,918.296,VALID,0,VALID,81.1589,VALID,458.129,VALID,22.3347,VALID,126,VALID,0.124609,
2015-02-13, 09:10:04,VALID,918.298,VALID,0,VALID,79.3216,VALID,459.311,VALID,22.4323,VALID,115,VALID,1.29492,
2015-02-13, 09:11:04,VALID,918.272,VALID,0,VALID,79.8553,VALID,462.427,VALID,22.5494,VALID,122,VALID,0.00585938,
2015-02-13, 09:12:04,VALID,918.271,VALID,0,VALID,78.7499,VALID,467.906,VALID,22.6843,VALID,91,VALID,1.78867,
2015-02-13, 09:13:04,VALID,918.264,VALID,0,VALID,80.4575,VALID,471.344,VALID,22.7818,VALID,106,VALID,0.0121094,
2015-02-13, 09:14:04,VALID,918.271,VALID,0,VALID,80.0001,VALID,470.807,VALID,22.9965,VALID,70,VALID,0,
2015-02-13, 09:15:04,VALID,918.286,VALID,0,VALID,77.3091,VALID,473.815,VALID,23.1527,VALID,119,VALID,0,
2015-02-13, 09:16:04,VALID,918.268,VALID,0,VALID,78.3458,VALID,478.328,VALID,23.4064,VALID,49,VALID,0,
2015-02-13, 09:17:04,VALID,918.285,VALID,0,VALID,76.6535,VALID,480.799,VALID,23.6797,VALID,69,VALID,1.30938,
2015-02-13, 09:18:04,VALID,918.295,VALID,0,VALID,76.1122,VALID,486.171,VALID,23.7382,VALID,64,VALID,0.0363281,
2015-02-13, 09:19:04,VALID,918.269,VALID,0,VALID,73.444,VALID,491.113,VALID,23.7187,VALID,51,VALID,1.69453,
2015-02-13, 09:20:04,VALID,918.29,VALID,0,VALID,73.5583,VALID,490.361,VALID,23.795,VALID,26,VALID,0,
2015-02-13, 09:21:04,VALID,918.308,VALID,0,VALID,70.3489,VALID,496.7,VALID,23.8731,VALID,54,VALID,0.109766,
2015-02-13, 09:22:04,VALID,918.31,VALID,0,VALID,73.6498,VALID,494.874,VALID,23.9121,VALID,81,VALID,0.203125,
2015-02-13, 09:23:04,VALID,918.334,VALID,0,VALID,69.1749,VALID,495.304,VALID,23.9707,VALID,103,VALID,0,
2015-02-13, 09:24:04,VALID,918.334,VALID,0,VALID,70.5471,VALID,502.61,VALID,24.1269,VALID,82,VALID,0,
2015-02-13, 09:25:04,VALID,918.38,VALID,0,VALID,70.7224,VALID,507.122,VALID,24.2672,VALID,84,VALID,0.760938,
2015-02-13, 09:26:04,VALID,918.313,VALID,0,VALID,72.674,VALID,513.246,VALID,24.2263,VALID,75,VALID,0.288672,
2015-02-13, 09:27:04,VALID,918.346,VALID,0,VALID,66.3313,VALID,516.04,VALID,24.1873,VALID,59,VALID,0,
2015-02-13, 09:28:04,VALID,918.337,VALID,0,VALID,71.0807,VALID,519.478,VALID,24.1482,VALID,34,VALID,0,
2015-02-13, 09:29:04,VALID,918.335,VALID,0,VALID,72.9332,VALID,523.776,VALID,24.3239,VALID,41,VALID,0,
2015-02-13, 09:30:04,VALID,918.33,VALID,0,VALID,68.3515,VALID,527.429,VALID,24.4997,VALID,38,VALID,0,
2015-02-13, 09:31:04,VALID,918.315,VALID,0,VALID,68.1991,VALID,529.148,VALID,24.5387,VALID,80,VALID,0.980859,
2015-02-13, 09:32:04,VALID,918.332,VALID,0,VALID,68.2829,VALID,534.95,VALID,24.402,VALID,75,VALID,0,
2015-02-13, 09:33:04,VALID,918.361,VALID,0,VALID,68.5421,VALID,536.454,VALID,24.3611,VALID,78,VALID,0.00429688,
2015-02-13, 09:34:04,VALID,918.366,VALID,0,VALID,65.8892,VALID,532.263,VALID,24.3221,VALID,76,VALID,0,
2015-02-13, 09:35:04,VALID,918.338,VALID,0,VALID,66.6515,VALID,537.85,VALID,24.3416,VALID,49,VALID,1.43477,
2015-02-13, 09:36:04,VALID,918.366,VALID,0,VALID,68.2982,VALID,549.239,VALID,24.402,VALID,39,VALID,0.0675781,
2015-02-13, 09:37:04,VALID,918.373,VALID,0,VALID,67.0403,VALID,551.066,VALID,24.4197,VALID,87,VALID,0,
2015-02-13, 09:38:04,VALID,918.34,VALID,0,VALID,65.2641,VALID,560.95,VALID,24.5192,VALID,42,VALID,0,
2015-02-13, 09:39:04,VALID,918.315,VALID,0,VALID,65.0964,VALID,563.636,VALID,24.5954,VALID,68,VALID,0,
2015-02-13, 09:40:04,VALID,918.324,VALID,0,VALID,67.0784,VALID,568.901,VALID,24.5368,VALID,50,VALID,0,
2015-02-13, 09:41:04,VALID,918.313,VALID,0,VALID,71.2256,VALID,572.984,VALID,24.5582,VALID,27,VALID,0.0941406,
2015-02-13, 09:42:04,VALID,918.339,VALID,0,VALID,66.4533,VALID,574.488,VALID,24.693,VALID,121,VALID,0,
2015-02-13, 09:43:04,VALID,918.331,VALID,0,VALID,65.7672,VALID,572.769,VALID,24.7693,VALID,119,VALID,0,
2015-02-13, 09:44:04,VALID,918.327,VALID,0,VALID,63.0228,VALID,577.389,VALID,24.7497,VALID,110,VALID,0,
2015-02-13, 09:45:04,VALID,918.334,VALID,0,VALID,64.7914,VALID,583.513,VALID,24.7321,VALID,117,VALID,0,
2015-02-13, 09:46:04,VALID,918.361,VALID,0,VALID,61.6277,VALID,587.488,VALID,24.6149,VALID,95,VALID,1.37188,
2015-02-13, 09:47:04,VALID,918.361,VALID,0,VALID,64.7533,VALID,585.554,VALID,24.574,VALID,79,VALID,0,
2015-02-13, 09:48:04,VALID,918.325,VALID,0,VALID,63.4497,VALID,586.521,VALID,24.7107,VALID,38,VALID,0.174219,
2015-02-13, 09:49:04,VALID,918.323,VALID,0,VALID,62.4053,VALID,587.703,VALID,24.8492,VALID,21,VALID,0.738672,
2015-02-13, 09:50:04,VALID,918.32,VALID,0,VALID,63.0685,VALID,590.174,VALID,24.9859,VALID,72,VALID,0.0878906,
2015-02-13, 09:51:04,VALID,918.275,VALID,0,VALID,65.165,VALID,592.645,VALID,25.1031,VALID,52,VALID,0.798047,
2015-02-13, 09:52:04,VALID,918.278,VALID,0,VALID,63.7927,VALID,595.546,VALID,25.2203,VALID,49,VALID,1.51641,
2015-02-13, 09:53:04,VALID,918.302,VALID,0,VALID,60.9111,VALID,597.373,VALID,25.0836,VALID,79,VALID,0.410547,
2015-02-13, 09:54:04,VALID,918.243,VALID,0,VALID,62.7788,VALID,599.307,VALID,25.1031,VALID,40,VALID,0.769922,
2015-02-13, 09:55:04,VALID,918.307,VALID,0,VALID,61.8945,VALID,603.604,VALID,25.2593,VALID,41,VALID,0,
2015-02-13, 09:56:04,VALID,918.261,VALID,0,VALID,61.3228,VALID,606.183,VALID,25.2203,VALID,77,VALID,0.352734,
2015-02-13, 09:57:04,VALID,918.28,VALID,0,VALID,59.1653,VALID,609.084,VALID,25.2203,VALID,87,VALID,1.3582,
2015-02-13, 09:58:04,VALID,918.32,VALID,0,VALID,61.5743,VALID,613.704,VALID,25.1617,VALID,69,VALID,0,
2015-02-13, 09:59:04,VALID,918.323,VALID,0,VALID,61.2846,VALID,617.357,VALID,25.2984,VALID,38,VALID,0.00664063,
2015-02-13, 10:00:04,VALID,918.316,VALID,0,VALID,59.7066,VALID,620.688,VALID,25.5698,VALID,39,VALID,0,
2015-02-13, 10:01:04,VALID,918.295,VALID,0,VALID,57.3815,VALID,617.787,VALID,25.9038,VALID,48,VALID,0,
2015-02-13, 10:02:04,VALID,918.289,VALID,0,VALID,56.0169,VALID,624.448,VALID,25.9038,VALID,84,VALID,0,
2015-02-13, 10:03:04,VALID,918.299,VALID,0,VALID,58.1362,VALID,626.597,VALID,25.7671,VALID,359,VALID,0,
2015-02-13, 10:04:04,VALID,918.318,VALID,0,VALID,56.9622,VALID,626.597,VALID,25.7651,VALID,355,VALID,0,
2015-02-13, 10:05:04,VALID,918.291,VALID,0,VALID,57.2595,VALID,629.175,VALID,25.8823,VALID,354,VALID,0.855078,
2015-02-13, 10:06:04,VALID,918.276,VALID,0,VALID,57.7702,VALID,632.936,VALID,25.8042,VALID,356,VALID,0.130469,
2015-02-13, 10:07:04,VALID,918.292,VALID,0,VALID,56.52,VALID,633.58,VALID,25.7651,VALID,338,VALID,0,
2015-02-13, 10:08:04,VALID,918.241,VALID,0,VALID,58.9061,VALID,637.448,VALID,25.687,VALID,336,VALID,0,
2015-02-13, 10:09:04,VALID,918.274,VALID,0,VALID,58.7079,VALID,634.762,VALID,25.6675,VALID,20,VALID,0,
2015-02-13, 10:10:04,VALID,918.26,VALID,0,VALID,59.1348,VALID,622.299,VALID,25.7847,VALID,19,VALID,0,
2015-02-13, 10:11:04,VALID,918.266,VALID,0,VALID,58.7384,VALID,614.993,VALID,25.7847,VALID,82,VALID,0.0421875,
2015-02-13, 10:12:04,VALID,918.263,VALID,0,VALID,58.7003,VALID,627.671,VALID,25.6089,VALID,78,VALID,0.0121094,
2015-02-13, 10:13:04,VALID,918.221,VALID,0,VALID,58.3115,VALID,627.027,VALID,25.4898,VALID,78,VALID,0,
2015-02-13, 10:14:04,VALID,918.222,VALID,0,VALID,57.8998,VALID,636.481,VALID,25.5679,VALID,132,VALID,0,
2015-02-13, 10:15:04,VALID,918.197,VALID,0,VALID,59.4093,VALID,640.886,VALID,25.6284,VALID,53,VALID,0.481641,
2015-02-13, 10:16:04,VALID,918.258,VALID,0,VALID,56.9927,VALID,641.316,VALID,25.7046,VALID,67,VALID,0,
2015-02-13, 10:17:04,VALID,918.24,VALID,0,VALID,57.5949,VALID,638.523,VALID,25.9995,VALID,67,VALID,0,
2015-02-13, 10:18:04,VALID,918.242,VALID,0,VALID,56.4285,VALID,645.721,VALID,26.1362,VALID,67,VALID,0,
2015-02-13, 10:19:04,VALID,918.232,VALID,0,VALID,58.7308,VALID,652.275,VALID,26.0776,VALID,71,VALID,0,
2015-02-13, 10:20:04,VALID,918.222,VALID,0,VALID,56.3218,VALID,659.904,VALID,26.2554,VALID,58,VALID,0,
2015-02-13, 10:21:04,VALID,918.237,VALID,0,VALID,53.9204,VALID,663.127,VALID,26.3902,VALID,48,VALID,0,
2015-02-13, 10:22:04,VALID,918.247,VALID,0,VALID,55.1021,VALID,676.02,VALID,26.4488,VALID,89,VALID,0.000390625,
2015-02-13, 10:23:04,VALID,918.254,VALID,0,VALID,58.9747,VALID,687.194,VALID,26.3706,VALID,131,VALID,0,
2015-02-13, 10:24:04,VALID,918.225,VALID,0,VALID,56.2989,VALID,694.822,VALID,26.3902,VALID,131,VALID,0,
2015-02-13, 10:25:04,VALID,918.198,VALID,0,VALID,56.6649,VALID,700.409,VALID,26.1362,VALID,115,VALID,0,
2015-02-13, 10:26:04,VALID,918.224,VALID,0,VALID,56.6496,VALID,700.731,VALID,26.1968,VALID,166,VALID,0.00195313,
2015-02-13, 10:27:04,VALID,918.199,VALID,0,VALID,55.6052,VALID,702.558,VALID,26.1558,VALID,147,VALID,0,
2015-02-13, 10:28:04,VALID,918.222,VALID,0,VALID,55.8644,VALID,701.591,VALID,26.1968,VALID,166,VALID,0,
2015-02-13, 10:29:04,VALID,918.193,VALID,0,VALID,54.7971,VALID,696.219,VALID,26.3316,VALID,165,VALID,0,
2015-02-13, 10:30:04,VALID,918.188,VALID,0,VALID,55.2621,VALID,630.357,VALID,26.605,VALID,36,VALID,0,
2015-02-13, 10:31:04,VALID,918.151,VALID,0,VALID,55.2316,VALID,605.753,VALID,26.8981,VALID,52,VALID,0,
2015-02-13, 10:32:04,VALID,918.149,VALID,0,VALID,56.6115,VALID,684.83,VALID,26.9372,VALID,52,VALID,0,
2015-02-13, 10:33:04,VALID,918.123,VALID,0,VALID,52.754,VALID,715.236,VALID,26.9176,VALID,34,VALID,0,
2015-02-13, 10:34:04,VALID,918.105,VALID,0,VALID,56.5124,VALID,726.732,VALID,26.7613,VALID,58,VALID,0,
2015-02-13, 10:35:04,VALID,918.087,VALID,0,VALID,55.1859,VALID,714.376,VALID,26.605,VALID,50,VALID,0.985937,
2015-02-13, 10:36:04,VALID,918.044,VALID,0,VALID,58.0599,VALID,700.624,VALID,26.3686,VALID,58,VALID,2.02773,
2015-02-13, 10:37:04,VALID,918.067,VALID,0,VALID,57.0003,VALID,734.468,VALID,26.1362,VALID,76,VALID,0,
2015-02-13, 10:38:04,VALID,918.055,VALID,0,VALID,57.4501,VALID,731.674,VALID,26.1948,VALID,76,VALID,0,
2015-02-13, 10:39:04,VALID,918.056,VALID,0,VALID,58.403,VALID,747.038,VALID,26.3902,VALID,69,VALID,0,
2015-02-13, 10:40:04,VALID,918.043,VALID,0,VALID,58.3649,VALID,733.823,VALID,26.5835,VALID,34,VALID,0.247656,
2015-02-13, 10:41:04,VALID,918.049,VALID,0,VALID,56.0397,VALID,758.535,VALID,26.605,VALID,84,VALID,0.79375,
2015-02-13, 10:42:04,VALID,917.989,VALID,0,VALID,56.6801,VALID,750.799,VALID,26.3706,VALID,73,VALID,0.0609375,
2015-02-13, 10:43:04,VALID,918.039,VALID,0,VALID,59.173,VALID,747.683,VALID,26.4077,VALID,75,VALID,0,
2015-02-13, 10:44:04,VALID,918.001,VALID,0,VALID,62.0546,VALID,749.295,VALID,26.4468,VALID,89,VALID,0.0976563,
2015-02-13, 10:45:04,VALID,918.01,VALID,0,VALID,56.6496,VALID,749.832,VALID,26.6246,VALID,144,VALID,1.50234,
2015-02-13, 10:46:04,VALID,918.028,VALID,0,VALID,55.2621,VALID,755.526,VALID,26.605,VALID,177,VALID,0.452734,
2015-02-13, 10:47:04,VALID,918.001,VALID,0,VALID,54.1339,VALID,765.626,VALID,26.5835,VALID,177,VALID,0,
2015-02-13, 10:48:04,VALID,918.005,VALID,0,VALID,54.4541,VALID,783.568,VALID,26.6226,VALID,175,VALID,0,
2015-02-13, 10:49:04,VALID,918.034,VALID,0,VALID,54.3854,VALID,797.643,VALID,26.8374,VALID,186,VALID,0,
2015-02-13, 10:50:04,VALID,917.983,VALID,0,VALID,54.82,VALID,804.949,VALID,26.7984,VALID,121,VALID,0,
2015-02-13, 10:51:04,VALID,917.991,VALID,0,VALID,55.7272,VALID,796.031,VALID,26.9351,VALID,56,VALID,0,
2015-02-13, 10:52:04,VALID,917.973,VALID,0,VALID,59.8133,VALID,487.353,VALID,27.1325,VALID,61,VALID,0.00195313,
2015-02-13, 10:53:04,VALID,917.952,VALID,0,VALID,58.4259,VALID,572.124,VALID,27.0328,VALID,129,VALID,0.7,
2015-02-13, 10:54:04,VALID,917.927,VALID,0,VALID,56.3599,VALID,357.994,VALID,26.8765,VALID,138,VALID,2.05508,
2015-02-13, 10:55:04,VALID,917.917,VALID,0,VALID,54.4541,VALID,219.932,VALID,26.8179,VALID,192,VALID,1.47969,
2015-02-13, 10:56:04,VALID,917.908,VALID,0,VALID,58.2886,VALID,185.336,VALID,26.896,VALID,157,VALID,0.367969,
2015-02-13, 10:57:04,VALID,917.91,VALID,0,VALID,54.7666,VALID,206.502,VALID,26.8765,VALID,146,VALID,1.80313,
2015-02-13, 10:58:04,VALID,917.908,VALID,0,VALID,57.8236,VALID,203.494,VALID,26.7788,VALID,157,VALID,0,
2015-02-13, 10:59:04,VALID,917.93,VALID,0,VALID,58.4487,VALID,198.336,VALID,26.9546,VALID,158,VALID,0.155469,
2015-02-13, 11:00:04,VALID,917.93,VALID,0,VALID,53.2801,VALID,199.518,VALID,26.7593,VALID,139,VALID,1.8207,
2015-02-13, 11:01:04,VALID,917.906,VALID,0,VALID,55.7577,VALID,210.907,VALID,26.5054,VALID,125,VALID,0.684766,
2015-02-13, 11:02:04,VALID,917.91,VALID,0,VALID,57.5187,VALID,222.726,VALID,26.5054,VALID,168,VALID,0.0605469,
2015-02-13, 11:03:04,VALID,917.95,VALID,0,VALID,53.524,VALID,236.371,VALID,26.6616,VALID,166,VALID,0.0289063,
2015-02-13, 11:04:04,VALID,917.95,VALID,0,VALID,54.8581,VALID,253.454,VALID,26.7007,VALID,145,VALID,0,
2015-02-13, 11:05:04,VALID,917.891,VALID,0,VALID,53.7603,VALID,267.421,VALID,26.8765,VALID,145,VALID,0,
2015-02-13, 11:06:04,VALID,917.887,VALID,0,VALID,55.1783,VALID,273.76,VALID,26.7984,VALID,6,VALID,0.541797,
2015-02-13, 11:07:04,VALID,917.891,VALID,0,VALID,58.4564,VALID,283.537,VALID,26.8765,VALID,32,VALID,0,
2015-02-13, 11:08:04,VALID,917.896,VALID,0,VALID,56.3599,VALID,308.141,VALID,26.7027,VALID,120,VALID,1.67852,
2015-02-13, 11:09:04,VALID,917.91,VALID,0,VALID,57.755,VALID,494.874,VALID,26.6226,VALID,176,VALID,1.41641,
2015-02-13, 11:10:04,VALID,917.901,VALID,0,VALID,55.7348,VALID,467.799,VALID,26.8179,VALID,194,VALID,0.0195313,
2015-02-13, 11:11:04,VALID,917.885,VALID,0,VALID,55.1707,VALID,636.266,VALID,26.9156,VALID,198,VALID,0.185937,
2015-02-13, 11:12:04,VALID,917.866,VALID,0,VALID,55.872,VALID,576.314,VALID,27.0307,VALID,201,VALID,0.929688,